Terminal Aerodrome Forecast
Issued by NWS Tiyan, Guam

Home | Current Version | Previous Version | Text Only | Print | Product List | Glossary On
Versions: 1 2 3 4 5 6 7 8 9 10 11 12 13 14 15 16 17 18 19 20 21 22 23 24 25 26 27 28 29 30 31 32 33 34 35 36 37 38 39
000
FTPQ31 PGUM 300200 AAA
TAFPQ
TAF AMD
PGUM 300258Z 3003/3106 24025G45KT 3SM SHRA SCT010 BKN030 OVC080
      TEMPO 3003/3007 24040G60KT 1/2SM +SHRA SCT005 BKN010
     FM300700 22025G40KT 4SM SHRA SCT012 BKN030 BKN080
     FM302300 19016G25KT P6SM VCSH SCT012 BKN030 BKN120=

USA.gov is the U.S. government's official web portal to all federal, state and local government web resources and services.